Flight Briefing for CPX663

Departure Arrival
Orlando International Airport (KMCO)
Click to view FAA NOTAMS
Miami International Airport (KMIA)
Click to view FAA NOTAMS
Departure Time Arrival Time
N/A N/A
Aircraft Distance
SF340AF 167nm
Departure METAR Arrival METAR
KMCO 271053Z 25003KT 10SM BCFG SCT300 22/21 A3009 RMK AO2 SLP188 T02170206 KMIA 271053Z 07007KT 10SM FEW024 26/20 A3005 RMK AO2 SLP175 T02610200
Suggested Route
MLB ANNEY4


View recent IFR Routes data
Notes



Charts and Procedures

Charts for KMCO
No chart available
Charts for KMIA
No chart available

Windy.com Weather Map